This is the latest recevied weather packets stored in our database for station/object KC5DAQ-29. If no packets are shown the sender has not sent any weather packets the latest 1 day(s).
| Time | Temp. | Humidity | Pressure | Rain* | Wind** | Luminosity | Snow |
|---|---|---|---|---|---|---|---|
| 1778052123 | 24.44° C | 100% | 1006.6 hPa | 0 mm | 0.45 m/s, 135° | 0 W/m² | - |
| 1778052062 | 24.44° C | 100% | 1006.6 hPa | 0 mm | 0.89 m/s, 149° | 0 W/m² | - |
| 1778052003 | 24.44° C | 100% | 1006.6 hPa | 0 mm | 0.45 m/s, 168° | 0 W/m² | - |
| 1778051942 | 24.44° C | 100% | 1006.6 hPa | 0 mm | 0.45 m/s, 154° | 0 W/m² | - |
| 1778051882 | 24.44° C | 100% | 1006.6 hPa | 0 mm | 0.45 m/s, 157° | 0 W/m² | - |
| 1778051822 | 24.44° C | 100% | 1006.6 hPa | 0 mm | 0.45 m/s, 158° | 0 W/m² | - |
| 1778051764 | 24.44° C | 100% | 1006.6 hPa | 0 mm | 0.45 m/s, 161° | 0 W/m² | - |
| 1778051715 | 24.44° C | 100% | 1006.6 hPa | 0 mm | 0.45 m/s, 158° | 0 W/m² | - |
| 1778051642 | 24.44° C | 100% | 1006.6 hPa | 0 mm | 0.45 m/s, 158° | 0 W/m² | - |
| 1778051582 | 24.44° C | 100% | 1006.7 hPa | 0 mm | 0.45 m/s, 165° | 0 W/m² | - |
| 1778051524 | 24.44° C | 100% | 1006.6 hPa | 0 mm | 1.34 m/s, 165° | 0 W/m² | - |
| 1778051464 | 24.44° C | 100% | 1006.6 hPa | 0 mm | 0.45 m/s, 145° | 0 W/m² | - |
| 1778051404 | 24.44° C | 100% | 1006.6 hPa | 0 mm | 0.45 m/s, 145° | 0 W/m² | - |
| 1778051343 | 24.44° C | 100% | 1006.6 hPa | 0 mm | 0.45 m/s, 145° | 0 W/m² | - |
| 1778051284 | 24.44° C | 100% | 1006.7 hPa | 0 mm | 0.45 m/s, 145° | 0 W/m² | - |
| 1778051223 | 24.44° C | 100% | 1006.7 hPa | 0 mm | 0.45 m/s, 145° | 0 W/m² | - |
| 1778051163 | 24.44° C | 100% | 1006.6 hPa | 0 mm | 0.45 m/s, 145° | 0 W/m² | - |
| 1778051072 | 24.44° C | 100% | 1006.6 hPa | 0 mm | 0.45 m/s, 145° | 0 W/m² | - |
| 1778051012 | 25° C | 100% | 1006.7 hPa | 0 mm | 0.89 m/s, 144° | 0 W/m² | - |
| 1778050953 | 25° C | 100% | 1006.7 hPa | 0 mm | 1.34 m/s, 171° | 0 W/m² | - |
| 1778050892 | 25° C | 100% | 1006.7 hPa | 0 mm | 1.34 m/s, 164° | 0 W/m² | - |
| 1778050824 | 25° C | 100% | 1006.7 hPa | 0 mm | 0.89 m/s, 166° | 0 W/m² | - |
| 1778050763 | 25° C | 100% | 1006.7 hPa | 0 mm | 1.34 m/s, 164° | 0 W/m² | - |
| 1778050703 | 25° C | 100% | 1006.8 hPa | 0 mm | 0.45 m/s, 159° | 0 W/m² | - |
| 1778050643 | 25° C | 100% | 1006.8 hPa | 0 mm | 0.45 m/s, 159° | 0 W/m² | - |
* Rain latest hour (hover to see other rain measurements)
** Current wind speed in m/s (hover to see current wind gust speed)